Regional Weather Roundup
Issued by NWS

Home | Current Version | Previous Version | Text Only | Print | Product List | Glossary On
Versions: 1 2 3 4 5 6 7 8 9 10 11 12 13 14 15 16 17 18 19 20 21 22 23 24 25 26 27 28 29 30 31 32 33 34 35 36 37 38 39 40 41 42 43 44 45 46 47 48 49 50
000
ASUS45 KTFX 012319
RWRMT
MONTANA HOURLY WEATHER ROUNDUP
NATIONAL WEATHER SERVICE GREAT FALLS MT
419 PM MST SUN MAR 1 2015

NOTE: "FAIR" INDICATES FEW OR NO CLOUDS BELOW 12000 FEET WITH NO
SIGNIFICANT WEATHER AND/OR OBSTRUCTIONS TO VISIBILITY.

* THESE STATIONS ARE NOT UNDER NWS QUALITY CONTROL. THEY DO NOT
   REPORT WEATHER SUCH AS PRECIPITATION OR FOG.

MTZ001>007-043-020000-
WEST OF THE DIVIDE
CITY           SKY/WX    TMP DP  RH WIND       PRES   REMARKS
KALISPELL      CLOUDY    34   9  35 S8        30.07F WCI  27
MISSOULA       PTSUNNY   36   7  30 CALM      30.08F
BUTTE          PTCLDY    30   5  34 S6        30.02F WCI  24
MULLAN PASS    CLOUDY    27   0  31 SW5       29.97F WCI  21
* ANACONDA     PTCLDY    34   9  35 E11        N/A   WCI  26
* ESSEX        N/A       33   0  24 W1G9       N/A
* EUREKA APT   PTSUNNY   39   7  26 SE13      30.06F WCI  31
* HAMILTON APT SUNNY     41   3  20 NW2       30.04F
* LIBBY APT    PTSUNNY   37   7  28 N5        30.07F WCI  33
* LINCOLN      N/A       36  -1  20 W6G16      N/A   WCI  31
* LOOKOUT PASS N/A       34   2  25 N2         N/A
* POLSON       N/A       36  10  34 S3G8       N/A
* RONAN APT    PTSUNNY   37  12  36 N/A        N/A
* SEELEY LAKE  N/A       38   3  23 SE3G9      N/A
* THOMP F APT  PTSUNNY   39   9  29 NE11       N/A   WCI  32
* YAAK HILL    N/A       39   9  29 S1G6       N/A
$$

MTZ008-052>055-020000-
SOUTHWEST MONTANA
CITY           SKY/WX    TMP DP  RH WIND       PRES   REMARKS
BOZEMAN        SUNNY     30   1  29 CALM      30.10F
DILLON         SUNNY     36   0  21 CALM      30.03F
* W YELLOWSTON SUNNY     29  -7  20 NW4        N/A
* THREE FORKS  SUNNY     34   3  27 N/A        N/A
* TWIN BRIDGES SUNNY     34   1  24 S6         N/A   WCI  29
* BOULDER HILL N/A       26   1  34 SW17       N/A   WCI  13
* MONIDA PASS  N/A       31  -3  23 NE2G8      N/A
* RAYNOLDS PAS N/A       29  11  47 SE3        N/A
* WHITEHALL    N/A       37   3  24 E4G9       N/A
* WISE RIVER   N/A       31   2  29 SE8        N/A   WCI  24
$$

MTZ009>010-012-014-046-048-049-054-020000-
EAST SLOPES AND CENTRAL MONTANA
CITY           SKY/WX    TMP DP  RH WIND       PRES   REMARKS
CUT BANK       PTCLDY    36  10  34 S14       29.98F WCI  27
GREAT FALLS    PTCLDY    34   9  35 S13G18    30.04F WCI  25
HELENA         PTCLDY    34   9  35 SE8       30.08F WCI  27
MALMSTROM AFB  SUNNY     34  12  40 S20       30.06F WCI  23
* CONRAD       PTCLDY    37  10  33 S12        N/A   WCI  29
* DEARBORN     N/A       35   7  31 S12        N/A   WCI  27
* EAST GLACIER N/A       28   5  37 W26G31     N/A   WCI  13
* MONARCH      N/A       29  -1  27 SW6        N/A   WCI  23
* PENDROY      N/A       31  14  49 S12        N/A   WCI  22
* ROGERS PASS  N/A       28   1  31 SE9G21     N/A   WCI  19
* SWEET GRASS  N/A       35   8  32 SW15G23    N/A   WCI  25
* WHITE SULPH  N/A       30   6  36 S12        N/A   WCI  20
$$

MTZ011-013-016-021-035-040-045-047-050-051-020000-
NORTH CENTRAL MONTANA
CITY           SKY/WX    TMP DP  RH WIND       PRES   REMARKS
HAVRE          SUNNY     36   9  32 SW13      30.12F WCI  27
LEWISTOWN      SUNNY     30   7  38 E8        30.09F WCI  22
* N BAR RANCH  SUNNY     30   3  31 S12       30.10F WCI  20
* CHINOOK      SUNNY     36   9  32 S10       30.15F WCI  29
* FORT BENTON  SUNNY     36  14  40 E10       30.11F WCI  29
* CHESTER      N/A       36  13  39 S11G21     N/A   WCI  28
* DENTON       N/A       31   6  34 SE11       N/A   WCI  22
* GEYSER       N/A       32   8  36 SE10       N/A   WCI  24
* JUDITH GAP   N/A       29   7  39 S12        N/A   WCI  19
* LOMA         N/A       34  15  46 SE11G17    N/A   WCI  26
$$

MTZ017>020-022>027-061-062-020000-
NORTHEAST MONTANA
CITY           SKY/WX    TMP DP  RH WIND       PRES   REMARKS
GLASGOW        PTSUNNY   28   7  41 SW6       30.25S WCI  21
GLENDIVE       CLOUDY    25   9  50 CALM      30.29F
JORDAN         SUNNY     28   9  45 W7        30.24F WCI  21
SIDNEY         CLOUDY    27  16  63 CALM      30.33S
WOLF POINT     CLOUDY    28  10  47 SW5       30.28S WCI  22
* BEAVER HILL  N/A       23  10  57 SW8        N/A   WCI  14
* CIRCLE       N/A       26  13  58 N/A        N/A
* LINDSAY DVD  N/A       23   8  52 W11G17     N/A   WCI  12
* NAVAJO       N/A       24   5  44 W4G9       N/A
* PLENTYWOOD A SUNNY     25   3  38 NW5       30.26S WCI  19
* POPLAR APT   SUNNY     28   5  37 W8        30.29S WCI  20
* SACO         N/A       30   9  41 E2         N/A
$$

MTZ028>042-056>058-020000-
SOUTHCENTRAL AND SOUTHEAST MONTANA
CITY           SKY/WX    TMP DP  RH WIND       PRES   REMARKS
BAKER          CLOUDY    25  10  53 W9        30.27S WCI  16
BILLINGS       SUNNY     32   0  25 SW8       30.16F WCI  25
LIVINGSTON     SUNNY     34   3  27 N7        30.07F WCI  28
MILES CITY     SUNNY     28   9  45 N6        30.28F WCI  21
* BIG TIMBER A SUNNY     32   0  25 SE5       30.10F WCI  27
* FORSYTH APT  SUNNY     30   7  38 CALM      30.26F
* LAUREL APT   SUNNY     34   3  27 S8         N/A   WCI  27
* ROUNDUP APT  SUNNY     36  -4  18 S7         N/A   WCI  30
* ALZADA       N/A       23   9  55 W9         N/A   WCI  13
* HYSHAM       N/A       29   6  37 E6         N/A   WCI  23
* LAME DEER    N/A       22   3  44 W6         N/A   WCI  14
* REED POINT   N/A       32   5  32 E7         N/A   WCI  25
* ROSCOE HILL  N/A       24   2  38 E9         N/A   WCI  14
$$

REGIONAL REPORTS...DAKOTAS
CITY           SKY/WX    TMP DP  RH WIND       PRES   REMARKS
WILLISTON      SUNNY     27   7  42 NW9       30.29S WCI  18
DICKINSON      CLOUDY    23  10  57 NW7       30.26R WCI  15
BEACH          CLOUDY    23   9  55 NW10      30.28S WCI  13
CROSBY         SUNNY     21   9  60 NW10      30.28S WCI  10
TIOGA          SUNNY     19  10  68 W10       30.29S WCI   8
WATFORD CITY   PTCLDY    23  10  57 W7        30.28R WCI  15
BISMARCK       PTSUNNY   23  10  57 N12G23    30.33R WCI  11
GRAND FORKS    PTCLDY    21   9  60 NW12      30.27R WCI   9
FARGO          PTSUNNY   21  10  62 NW15      30.28R WCI   7
BUFFALO SD     SUNNY     25   9  50 NW17      30.20F WCI  12
RAPID CITY     SUNNY     27  12  53 N23       30.25R WCI  13
$$

REGIONAL REPORTS...WYOMING/IDAHO/WASHINGTON
CITY           SKY/WX    TMP DP  RH WIND       PRES   REMARKS
GILLETTE       SUNNY     27   3  35 NW3       30.19F
SHERIDAN       SUNNY     25   3  38 CALM      30.20F
CODY           SUNNY     27  12  53 SE16      30.10F WCI  15
YELLOWSTONE LA SUNNY     19  -6  32 CALM      30.03F
SALMON         SUNNY     37   7  28 N3        30.03F
MULLAN PASS    CLOUDY    27   0  31 SW5       29.97S WCI  21
SAND POINT     PTSUNNY   37  12  36 CALM      30.09F
SPOKANE        PTSUNNY   43  10  26 S3        30.06F
$$

REGIONAL REPORTS...ALBERTA
CITY           SKY/WX    TMP DP  RH WIND       PRES   REMARKS
CALGARY        PTSUNNY   32  14  47 S14       29.87F WCI  22
LETHBRIDGE     PTSUNNY   37  14  39 SW20G29   29.95F WCI  27
MEDICINE HAT   SUNNY     34  18  52 S15       30.05F WCI  24
EDMONTON       SUNNY     27  14  58 SE14G20   29.92F WCI  16
WATERTON GATE  N/A       32   9  38 SW20G30    N/A   WCI  20
CARDSTON       N/A       36  14  40 SW7        N/A   WCI  30
MILK RIVER     N/A       36  14  40 S16        N/A   WCI  26
$$

REGIONAL REPORTS...SASKATCHEWAN
CITY           SKY/WX    TMP DP  RH WIND       PRES   REMARKS
SWIFT CURRENT  SUNNY     21   9  60 S12       30.13F WCI   9
MOOSE JAW      N/A       21  14  74 W7        30.24F WCI  12
REGINA         N/A       14   9  80 W5        30.24F WCI   6
VAL MARIE      N/A       28   7  41 SW8        N/A   WCI  20
ASSINIBOIA     N/A       21   9  60 SW7        N/A   WCI  12
CORONACH       N/A       25   7  46 W6         N/A   WCI  18

$$



USA.gov is the U.S. government's official web portal to all federal, state and local government web resources and services.